Vorticity
nan nan nan nan nan nan nan nan nan nan nan nan nan nan nan nan nan nan nan nan nan nan nan nan nan nan nan nan nan nan nan nan nan nan nan nan nan nan nan nan nan nan nan
nan 8 8 7 7 7 8 8 7 7 7 8 8 7 7 7 7 7 8 8 6 10 14 8 6 7 6 5 6 7 7 7 6 5 5 5 7 7 5 7 6 5 nan
nan 5 7 9 8 8 7 8 8 7 7 8 8 7 7 8 8 8 7 8 12 7 9 10 9 9 8 7 5 6 7 6 6 7 5 5 5 5 5 6 7 7 nan
nan 4 6 9 9 7 9 8 8 7 7 7 7 7 7 8 8 8 7 9 8 7 10 12 8 8 9 8 7 4 4 5 6 6 6 6 5 5 5 6 6 7 nan
nan 5 6 9 9 7 9 8 8 7 7 7 6 6 8 8 8 8 9 9 8 6 8 12 10 10 8 9 8 6 4 5 7 6 6 4 6 5 6 5 6 6 nan
nan 5 7 8 7 7 8 10 8 6 7 8 8 7 7 8 9 8 9 10 11 8 5 7 10 12 11 10 11 8 6 6 6 6 6 6 6 5 5 7 6 5 nan
nan 5 6 8 7 8 8 7 9 10 7 8 7 9 11 10 9 7 8 10 10 10 7 5 7 9 11 12 11 10 7 7 6 6 5 7 6 7 7 7 6 6 nan
nan 6 6 7 6 7 9 8 5 6 11 8 4 9 11 10 12 11 8 10 9 9 10 7 9 9 6 9 13 12 8 10 8 5 6 9 8 6 7 7 6 6 nan
nan 6 4 6 7 7 8 9 8 5 6 8 6 3 8 10 9 13 12 9 9 7 10 8 8 10 8 8 10 12 10 11 13 9 7 7 8 7 7 7 6 7 nan
nan 8 6 5 5 7 7 7 8 7 5 5 8 7 3 8 6 9 12 13 10 9 7 8 9 10 9 9 9 9 10 7 10 12 10 8 7 6 6 7 7 6 nan
nan 9 8 7 5 8 9 8 8 6 5 6 5 11 9 6 7 7 8 11 10 11 9 9 8 9 11 8 10 11 11 8 7 9 12 10 9 8 5 6 7 6 nan
nan 10 9 8 7 9 10 8 9 8 7 7 6 7 10 7 9 5 7 9 10 11 11 9 9 9 9 9 9 11 10 8 8 8 10 11 11 9 8 8 7 7 nan
nan 13 9 6 7 9 9 9 9 8 7 8 6 5 6 5 7 7 7 6 9 10 13 11 10 8 9 11 12 12 8 8 8 7 7 8 9 9 11 11 9 11 nan
nan 11 11 9 8 9 8 7 8 10 10 9 9 5 7 9 8 9 8 7 6 9 10 11 11 8 8 11 14 10 6 11 8 8 7 7 7 8 8 9 10 11 nan
nan 11 10 9 10 8 8 7 8 9 9 10 10 9 7 9 9 8 9 10 7 7 8 7 11 13 8 9 12 8 10 12 10 8 8 8 8 7 8 9 9 9 nan
nan 11 10 10 10 9 10 8 8 10 8 8 11 10 7 7 8 9 11 10 9 7 10 13 7 14 12 8 13 11 9 11 12 10 9 9 10 10 10 11 10 10 nan
nan 10 10 9 9 9 9 8 8 11 9 8 9 10 8 7 5 8 11 10 10 10 7 11 14 14 15 8 9 12 11 9 12 17 10 10 10 12 12 12 12 12 nan
nan 13 10 9 9 10 10 9 9 11 11 9 8 8 7 8 8 8 10 12 11 10 10 7 8 10 14 14 10 10 9 11 12 20 25 19 18 16 15 15 16 16 nan
nan 23 20 12 11 12 11 11 11 11 10 9 8 8 7 7 10 11 12 11 10 10 8 7 8 8 9 11 9 11 13 10 12 9 15 19 20 20 19 18 17 17 nan
nan 12 18 24 22 17 14 15 12 10 8 10 9 7 10 10 10 10 12 10 9 10 9 7 8 10 8 11 11 10 10 12 6 0 5 9 8 7 9 12 13 13 nan
nan 13 12 13 15 14 12 16 25 20 11 8 10 9 11 11 11 7 8 11 9 8 8 9 6 8 9 11 13 9 8 6 6 8 8 6 4 4 5 8 13 11 nan
nan 10 11 10 11 5 6 18 22 26 22 12 12 11 11 14 13 16 18 19 17 14 9 6 8 8 7 5 9 9 7 7 10 9 7 9 9 10 9 10 13 10 nan
nan 9 10 10 9 6 12 15 19 17 16 19 16 18 15 14 16 14 14 11 12 17 23 21 13 12 12 9 7 8 6 7 11 10 7 9 10 10 10 12 11 9 nan
nan 9 8 11 10 6 13 17 12 12 10 11 13 15 16 13 18 16 6 5 5 8 17 23 21 19 17 22 21 15 9 4 7 11 11 11 9 9 10 11 8 9 nan
nan 9 9 9 12 5 10 24 17 8 7 8 9 13 17 13 16 21 15 9 7 6 9 12 11 10 11 15 24 22 17 8 5 9 9 12 12 7 9 9 8 7 nan
nan nan nan nan nan nan nan nan nan nan nan nan nan nan nan nan nan nan nan nan nan nan nan nan nan nan nan nan nan nan nan nan nan nan nan nan nan nan nan nan nan nan nan
CAPE
936 1155 1009 824 632 569 575 473 171 54 146 429 653 622 515 720 735 784 771 135 196 375 397 288 121 24 15 8 33 31 32 25 16 19 28 36 32 28 23 24 20 19 19
836 889 864 738 798 619 124 374 243 131 129 253 401 467 462 526 619 672 738 442 53 104 209 228 185 66 27 18 43 41 47 35 20 23 29 37 38 28 28 31 5 12 7
683 751 814 745 830 456 41 313 253 160 46 32 156 202 216 304 457 398 449 465 89 62 70 120 154 166 34 26 39 56 44 54 37 28 26 32 36 28 25 27 26 15 3
851 643 571 670 824 133 24 277 27 65 132 47 78 82 106 160 227 395 441 347 377 170 45 34 100 114 95 53 32 31 32 37 43 35 27 29 29 27 24 25 28 15 11
977 712 552 429 287 177 31 51 3 64 18 87 15 26 80 141 139 151 228 243 287 289 115 36 47 50 59 64 63 31 31 41 38 33 31 23 17 21 21 22 27 17 13
832 748 552 400 221 107 4 43 7 34 151 258 2 6 17 21 125 62 95 165 285 259 149 20 29 33 14 27 112 53 31 44 35 37 32 26 21 24 34 34 20 10 6
646 890 410 211 61 60 22 5 15 44 45 138 16 7 14 18 13 10 37 67 128 118 95 0 15 71 26 5 81 71 54 61 47 37 37 46 41 33 37 37 28 14 12
537 691 521 141 23 58 46 7 10 6 19 49 5 6 9 13 11 21 78 75 133 111 23 1 0 29 26 42 43 59 96 99 72 33 50 57 41 27 38 34 38 22 12
751 700 532 359 137 90 92 33 7 73 13 7 3 16 19 19 11 8 22 32 80 26 22 17 0 0 54 26 27 13 26 61 89 83 53 57 58 38 37 39 38 37 23
753 782 582 444 293 155 170 49 30 79 126 46 9 20 18 5 27 11 5 10 39 17 21 21 0 0 19 14 4 11 16 15 23 79 88 58 50 43 35 42 45 36 35
675 781 609 379 437 243 260 232 149 87 264 291 47 18 71 35 34 2 13 12 6 12 29 7 2 0 0 24 21 5 1 5 0 16 58 82 66 46 36 32 35 29 29
624 820 732 642 592 526 537 466 319 178 312 194 60 9 31 29 10 8 14 5 4 5 10 1 1 0 0 11 12 2 0 0 0 0 2 30 49 48 46 37 36 39 40
768 756 600 513 526 531 366 600 454 356 180 110 81 26 11 19 58 43 22 12 1 1 3 2 0 0 0 9 35 0 0 0 0 0 0 0 2 5 28 36 41 52 93
869 650 437 533 403 288 190 273 316 202 191 223 137 60 74 276 88 32 6 39 0 2 3 7 2 9 0 0 36 0 1 0 0 0 0 0 0 0 0 0 16 36 106
801 625 427 349 225 236 157 110 182 156 55 68 65 54 51 46 41 42 56 11 7 0 1 10 2 1 0 0 4 14 3 0 0 0 0 0 0 0 0 0 0 0 0
499 420 383 300 243 132 75 60 90 151 47 37 30 29 20 39 41 31 30 6 0 1 0 0 2 0 0 0 0 31 14 0 0 0 0 0 0 0 0 0 0 0 0
126 78 175 221 167 70 45 36 62 68 37 12 2 10 21 37 27 36 21 33 1 1 0 0 0 0 1 0 0 7 43 17 19 0 0 0 0 0 0 0 0 0 0
121 83 37 41 65 85 69 5 9 3 2 1 6 3 4 3 22 21 22 2 1 0 0 0 0 0 0 0 0 0 37 40 42 0 0 0 0 0 0 0 0 0 0
1 1 27 20 27 8 1 1 2 1 0 1 0 2 0 10 22 21 1 1 0 0 0 0 0 0 0 0 0 3 61 56 0 1 0 1 1 0 0 0 0 0 0
0 1 1 2 1 0 1 1 1 1 0 0 2 3 7 28 24 1 1 8 1 1 0 0 0 0 0 0 0 10 66 5 1 0 0 0 0 0 0 0 0 0 1
3 2 1 1 2 0 1 1 1 1 2 2 5 4 14 17 4 2 1 2 1 1 1 1 1 0 3 1 2 12 46 3 4 3 4 4 2 3 3 1 3 2 3
4 3 4 2 2 1 0 0 0 2 4 1 1 4 9 0 1 2 0 0 0 0 4 0 2 1 0 1 0 0 0 1 1 1 2 3 3 4 5 4 2 2 3
4 4 4 5 3 3 1 1 1 1 2 2 0 0 1 1 1 1 1 0 0 1 1 1 1 0 0 0 1 0 1 0 0 0 0 1 1 1 2 3 1 1 2
9 4 3 4 4 3 2 1 0 0 0 1 1 1 1 0 0 0 0 0 0 0 0 0 0 1 1 0 0 0 0 1 0 0 0 0 0 1 0 4 6 5 2
4 4 3 3 4 3 4 2 0 0 0 0 0 0 2 1 0 0 0 0 0 1 1 2 1 2 1 0 0 0 1 0 0 0 0 1 2 1 1 1 4 4 2
10 10 7 5 5 5 10 5 1 1 0 0 0 0 2 1 0 0 0 0 0 1 0 0 0 0 0 0 0 0 0 0 0 0 0 0 0 1 2 2 1 3 2